| time (UTC) | temp F | wind direction | speed MPH | gust MPH | rain 1hr in | rain 24hr in | rain mn in | humidity % | barometer mb |
| 20260504034547 | 56 | 40 | 11.0 | 17.0 | 0.00 | 0.00 | 0.00 | 36 | 1008.7 |
| 20260504033039 | 57 | 36 | 13.0 | 22.0 | 0.00 | 0.00 | 0.00 | 36 | 1008.1 |
| 20260504031542 | 57 | 34 | 15.0 | 25.0 | 0.00 | 0.00 | 0.00 | 35 | 1008.0 |
| 20260504030038 | 58 | 40 | 17.0 | 27.0 | 0.00 | 0.00 | 0.00 | 34 | 1007.6 |
| 20260504024545 | 58 | 19 | 17.0 | 33.0 | 0.00 | 0.00 | 0.00 | 34 | 1007.2 |
| 20260504023037 | 59 | 38 | 14.0 | 30.0 | 0.00 | 0.00 | 0.00 | 33 | 1007.0 |
| 20260504021539 | 61 | 38 | 19.0 | 30.0 | 0.00 | 0.00 | 0.00 | 32 | 1006.7 |
| 20260504020038 | 63 | 13 | 16.0 | 24.0 | 0.00 | 0.00 | 0.00 | 32 | 1006.2 |
| 20260504014538 | 64 | 23 | 11.0 | 16.0 | 0.00 | 0.00 | 0.00 | 33 | 1005.9 |
| 20260504013047 | 65 | 17 | 13.0 | 20.0 | 0.00 | 0.00 | 0.00 | 31 | 1005.8 |
| 20260504011535 | 66 | 27 | 14.0 | 22.0 | 0.00 | 0.00 | 0.00 | 30 | 1005.7 |
| 20260504010035 | 67 | 11 | 15.0 | 22.0 | 0.00 | 0.00 | 0.00 | 29 | 1005.6 |
| 20260504004533 | 67 | 5 | 18.0 | 25.0 | 0.00 | 0.00 | 0.00 | 28 | 1005.6 |
| 20260504003032 | 67 | 348 | 14.0 | 24.0 | 0.00 | 0.00 | 0.00 | 28 | 1005.7 |
| 20260504001538 | 68 | 355 | 18.0 | 30.0 | 0.00 | 0.00 | 0.00 | 29 | 1005.7 |
| 20260504000030 | 69 | 19 | 22.0 | 29.0 | 0.00 | 0.00 | 0.00 | 29 | 1005.5 |
| 20260503234530 | 70 | 355 | 19.0 | 31.0 | 0.00 | 0.00 | 0.00 | 28 | 1005.5 |
| 20260503233031 | 71 | 360 | 20.0 | 28.0 | 0.00 | 0.00 | 0.00 | 27 | 1005.4 |
| 20260503231531 | 71 | 327 | 21.0 | 30.0 | 0.00 | 0.00 | 0.00 | 25 | 1005.2 |
| 20260503230039 | 72 | 335 | 21.0 | 34.0 | 0.00 | 0.00 | 0.00 | 25 | 1005.2 |
| 20260503224528 | 74 | 339 | 18.0 | 26.0 | 0.00 | 0.00 | 0.00 | 24 | 1005.0 |
| 20260503223028 | 74 | 334 | 12.0 | 32.0 | 0.00 | 0.00 | 0.00 | 24 | 1005.1 |
| 20260503221530 | 74 | 321 | 19.0 | 37.0 | 0.00 | 0.00 | 0.00 | 22 | 1005.3 |
| 20260503220026 | 75 | 319 | 28.0 | 35.0 | 0.00 | 0.00 | 0.00 | 21 | 1005.2 |
| 20260503214536 | 75 | 306 | 22.0 | 34.0 | 0.00 | 0.00 | 0.00 | 21 | 1005.2 |
| 20260503213024 | 75 | 286 | 15.0 | 28.0 | 0.00 | 0.00 | 0.00 | 24 | 1005.5 |
| 20260503211522 | 74 | 291 | 19.0 | 33.0 | 0.00 | 0.00 | 0.00 | 24 | 1005.6 |
| 20260503210020 | 74 | 319 | 18.0 | 33.0 | 0.00 | 0.00 | 0.00 | 24 | 1006.1 |
| 20260503204517 | 74 | 336 | 17.0 | 26.0 | 0.00 | 0.00 | 0.00 | 25 | 1006.2 |
| 20260503203017 | 73 | 331 | 14.0 | 28.0 | 0.00 | 0.00 | 0.00 | 26 | 1006.5 |
| 20260503201515 | 73 | 309 | 8.0 | 30.0 | 0.00 | 0.00 | 0.00 | 28 | 1006.7 |
| 20260503200013 | 73 | 311 | 12.0 | 31.0 | 0.00 | 0.00 | 0.00 | 27 | 1007.0 |
| 20260503194511 | 72 | 265 | 16.0 | 24.0 | 0.00 | 0.00 | 0.00 | 27 | 1007.1 |
| 20260503193016 | 72 | 279 | 18.0 | 25.0 | 0.00 | 0.00 | 0.00 | 26 | 1007.2 |
| 20260503191518 | 72 | 315 | 15.0 | 25.0 | 0.00 | 0.00 | 0.00 | 28 | 1007.5 |
| 20260503190007 | 73 | 324 | 15.0 | 27.0 | 0.00 | 0.00 | 0.00 | 27 | 1007.8 |
| 20260503184503 | 71 | 327 | 11.0 | 23.0 | 0.00 | 0.00 | 0.00 | 28 | 1008.0 |
| 20260503183059 | 72 | 273 | 14.0 | 22.0 | 0.00 | 0.00 | 0.00 | 28 | 1008.2 |
| 20260503181557 | 70 | 304 | 13.0 | 24.0 | 0.00 | 0.00 | 0.00 | 29 | 1008.2 |
| 20260503180100 | 69 | 312 | 11.0 | 20.0 | 0.00 | 0.00 | 0.00 | 32 | 1008.7 |
| 20260503174554 | 67 | 309 | 12.0 | 18.0 | 0.00 | 0.00 | 0.00 | 33 | 1009.0 |
| 20260503173053 | 68 | 305 | 13.0 | 20.0 | 0.00 | 0.00 | 0.00 | 30 | 1009.0 |
| 20260503171550 | 68 | 316 | 9.0 | 18.0 | 0.00 | 0.00 | 0.00 | 32 | 1009.1 |
| 20260503081509 | 40 | 250 | 6.0 | 9.0 | 0.00 | 0.00 | 0.00 | 83 | 1011.7 |
| 20260503071613 | 41 | 251 | 4.0 | 9.0 | 0.00 | 0.00 | 0.00 | 78 | 1012.1 |
| 20260503054558 | 43 | 263 | 4.0 | 7.0 | 0.00 | 0.00 | 0.00 | 71 | 1012.3 |
| 20260503053040 | 43 | 263 | 4.0 | 9.0 | 0.00 | 0.00 | 0.00 | 71 | 1012.4 |
| 20260503051538 | 42 | 265 | 2.0 | 6.0 | 0.00 | 0.00 | 0.00 | 72 | 1012.4 |
| 20260503050037 | 43 | 266 | 4.0 | 7.0 | 0.00 | 0.00 | 0.00 | 69 | 1012.5 |
| 20260503044542 | 44 | 267 | 5.0 | 10.0 | 0.00 | 0.00 | 0.00 | 66 | 1012.6 |
| 20260503043047 | 45 | 278 | 4.0 | 8.0 | 0.00 | 0.00 | 0.00 | 66 | 1012.6 |
| 20260503041536 | 45 | 290 | 2.0 | 7.0 | 0.00 | 0.00 | 0.00 | 64 | 1012.6 |
| 20260503040037 | 45 | 308 | 3.0 | 4.0 | 0.00 | 0.00 | 0.00 | 64 | 1012.6 |